Weather History for Bryce Canyon, UT

Change the Weather History Date:

Wednesday, February 12, 2014

  Actual Average Record
Temperature  
Mean Temperature 30 °F -  
Max Temperature 46 °F 40 °F 54 °F (1970)
Min Temperature 15 °F 10 °F -18 °F (2004)
Degree Days  
Heating Degree Days 34    
Moisture  
Dew Point 18 °F    
Average Humidity 66    
Maximum Humidity 84    
Minimum Humidity 37    
Precipitation  
Precipitation 0.00 in - - ()
Sea Level Pressure  
Sea Level Pressure 30.17 in    
Wind  
Wind Speed 6 mph (WNW)    
Max Wind Speed 15 mph    
Max Gust Speed 24 mph    
Visibility 10 miles    
Events      
Averages and records for this station are not official NWS values.
T = Trace of Precipitation, MM = Missing Value Source: NWS Daily Summary

Daily Weather History Graph

Daily Weather History Graph

Search for Another Location

Airport:

Trip Planner

Search our weather history database for the weather conditions in past years. The results will help you decide how hot, cold, wet, or windy it might be!

Date:

Astronomy

Feb. 12, 2014 Rise Set
Actual Time 7:21 AM MST 6:04 PM MST
Civil Twilight 6:54 AM MST 6:31 PM MST
Nautical Twilight 6:23 AM MST 7:02 PM MST
Astronomical Twilight 5:53 AM MST 7:32 PM MST
Moon 4:22 PM MST (2/12) 5:39 AM MST (2/12)
Length of Visible Light 11h 37m
Length of Day
10h 43m
Waxing Gibbous, 96% of the Moon is Illuminated
Feb 12
Waxing Gibbous
Feb 14
Full
Feb 22
Last Quarter
Mar 1
New
Mar 8
First Quarter

Hourly Weather History & Observations

Time (MST) Temp. Windchill Dew Point Humidity Pressure Visibility Wind Dir Wind Speed Gust Speed Precip Events Conditions
12:53 AM 17.1 °F 11.7 °F 12.0 °F 81% 30.21 in 10.0 mi West 3.5 mph - N/A   Clear
1:53 AM 15.1 °F 9.4 °F 10.9 °F 84% 30.24 in 10.0 mi West 3.5 mph - N/A   Clear
2:53 AM 16.0 °F 7.4 °F 12.0 °F 84% 30.22 in 10.0 mi West 5.8 mph - N/A   Clear
3:53 AM 16.0 °F 7.4 °F 12.0 °F 84% 30.20 in 10.0 mi West 5.8 mph - N/A   Clear
4:53 AM 16.0 °F 7.4 °F 12.0 °F 84% 30.22 in 10.0 mi WSW 5.8 mph - N/A   Clear
5:53 AM 15.1 °F 5.2 °F 10.9 °F 84% 30.24 in 10.0 mi West 6.9 mph - N/A   Clear
6:53 AM 18.0 °F 6.9 °F 12.9 °F 81% 30.24 in 10.0 mi West 9.2 mph - N/A   Clear
7:53 AM 18.0 °F - 12.9 °F 81% 30.23 in 10.0 mi Calm Calm - N/A   Clear
8:53 AM 24.1 °F - 17.1 °F 75% 30.23 in 10.0 mi Calm Calm - N/A   Clear
9:53 AM 33.1 °F 26.9 °F 19.0 °F 56% 30.22 in 10.0 mi West 6.9 mph - N/A   Clear
10:53 AM 39.0 °F 34.0 °F 16.0 °F 39% 30.20 in 10.0 mi West 6.9 mph - N/A   Clear
11:53 AM 42.1 °F 39.2 °F 17.1 °F 37% 30.17 in 10.0 mi NW 4.6 mph - N/A   Partly Cloudy
12:53 PM 43.0 °F 36.8 °F 21.9 °F 43% 30.15 in 10.0 mi North 11.5 mph - N/A   Mostly Cloudy
1:53 PM 45.0 °F 38.2 °F 21.9 °F 40% 30.12 in 10.0 mi NW 15.0 mph - N/A   Clear
2:53 PM 46.0 °F 39.9 °F 24.1 °F 42% 30.10 in 10.0 mi NW 13.8 mph 24.2 mph N/A   Clear
3:53 PM 46.0 °F 39.9 °F 24.1 °F 42% 30.09 in 10.0 mi NNW 13.8 mph - N/A   Clear
4:53 PM 45.0 °F 39.7 °F 24.1 °F 44% 30.10 in 10.0 mi NNW 10.4 mph - N/A   Clear
5:53 PM 41.0 °F 35.2 °F 25.0 °F 53% 30.13 in 10.0 mi North 9.2 mph - N/A   Clear
6:53 PM 39.9 °F 35.8 °F 24.1 °F 53% 30.13 in 10.0 mi NNW 5.8 mph - N/A   Clear
7:53 PM 30.0 °F 25.2 °F 25.0 °F 82% 30.20 in 10.0 mi SSW 4.6 mph - N/A   Clear
8:53 PM 28.0 °F - 23.0 °F 81% 30.18 in 10.0 mi Calm Calm - N/A   Clear
9:53 PM 27.0 °F 23.0 °F 21.9 °F 81% 30.13 in 10.0 mi South 3.5 mph - N/A   Clear
10:53 PM 25.0 °F 19.3 °F 19.9 °F 81% 30.10 in 10.0 mi NE 4.6 mph - N/A   Clear
11:53 PM 30.9 °F - 21.0 °F 67% 30.04 in 10.0 mi Calm Calm - N/A   Clear